Time,TemperatureF,DewpointF,PressureIn,WindDirection,WindDirectionDegrees,WindSpeedMPH,WindSpeedGustMPH,Humidity,HourlyPrecipIn,Conditions,Clouds,dailyrainin,SoftwareType,DateUTC
2016-02-09 00:23:00,28.0,13.0,-100.00,NNW,336,15.0,26.0,53,-99.99,,,-99.99,,2016-02-09 06:23:00,
2016-02-09 00:34:00,28.0,13.0,-100.00,NNW,336,15.0,26.0,53,-99.99,,,-99.99,,2016-02-09 06:34:00,
2016-02-09 00:45:00,28.0,13.0,-100.00,NNW,336,15.0,26.0,53,-99.99,,,-99.99,,2016-02-09 06:45:00,
2016-02-09 01:13:00,27.0,13.0,-100.00,NNW,339,14.0,-999.0,54,-99.99,,,-99.99,,2016-02-09 07:13:00,
2016-02-09 01:23:00,27.0,13.0,-100.00,NNW,339,14.0,31.0,54,-99.99,,,-99.99,,2016-02-09 07:23:00,
2016-02-09 01:34:00,27.0,13.0,-100.00,NNW,339,14.0,31.0,54,-99.99,,,-99.99,,2016-02-09 07:34:00,
2016-02-09 01:44:00,27.0,13.0,-100.00,NNW,339,14.0,31.0,54,-99.99,,,-99.99,,2016-02-09 07:44:00,
2016-02-09 01:53:00,27.0,12.0,-100.00,NNW,337,14.0,32.0,52,-99.99,,,-99.99,,2016-02-09 07:53:00,
2016-02-09 02:13:00,27.0,12.0,-100.00,NNW,337,14.0,32.0,52,-99.99,,,-99.99,,2016-02-09 08:13:00,
2016-02-09 02:24:00,27.0,12.0,-100.00,NNW,337,14.0,32.0,52,-99.99,,,-99.99,,2016-02-09 08:24:00,
2016-02-09 02:44:00,27.0,12.0,-100.00,NNW,337,14.0,32.0,52,-99.99,,,-99.99,,2016-02-09 08:44:00,
2016-02-09 03:14:00,27.0,14.0,-100.00,NNW,334,12.0,26.0,57,-99.99,,,-99.99,,2016-02-09 09:14:00,
2016-02-09 03:23:00,27.0,14.0,-100.00,NNW,334,12.0,26.0,57,-99.99,,,-99.99,,2016-02-09 09:23:00,
2016-02-09 03:44:00,27.0,14.0,-100.00,NNW,334,12.0,26.0,57,-99.99,,,-99.99,,2016-02-09 09:44:00,
2016-02-09 03:53:00,27.0,13.0,-100.00,NNW,334,11.0,20.0,56,-99.99,,,-99.99,,2016-02-09 09:53:00,
2016-02-09 04:23:00,27.0,13.0,-100.00,NNW,334,11.0,20.0,56,-99.99,,,-99.99,,2016-02-09 10:23:00,
2016-02-09 04:44:00,27.0,13.0,-100.00,NNW,334,11.0,20.0,56,-99.99,,,-99.99,,2016-02-09 10:44:00,
2016-02-09 04:53:00,27.0,13.0,-100.00,NNW,332,10.0,23.0,56,-99.99,,,-99.99,,2016-02-09 10:53:00,
2016-02-09 05:23:00,27.0,13.0,-100.00,NNW,332,10.0,23.0,56,-99.99,,,-99.99,,2016-02-09 11:23:00,
2016-02-09 05:34:00,27.0,13.0,-100.00,NNW,332,10.0,23.0,56,-99.99,,,-99.99,,2016-02-09 11:34:00,
2016-02-09 05:46:00,27.0,13.0,-100.00,NNW,332,10.0,-999.0,56,-99.99,,,-99.99,,2016-02-09 11:46:00,
2016-02-09 05:53:00,-999.9,-99.9,-100.00,NNW,334,8.0,-999.0,-999,-99.99,,,-99.99,,2016-02-09 11:53:00,
2016-02-09 06:13:00,-999.9,-99.9,-100.00,NNW,334,8.0,-999.0,-999,-99.99,,,-99.99,,2016-02-09 12:13:00,
2016-02-09 06:24:00,-999.9,-99.9,-100.00,NNW,334,8.0,-999.0,-999,-99.99,,,-99.99,,2016-02-09 12:24:00,
2016-02-09 06:34:00,-999.9,-99.9,-100.00,NNW,334,8.0,-999.0,-999,-99.99,,,-99.99,,2016-02-09 12:34:00,
2016-02-09 06:46:00,-999.9,-99.9,-100.00,NNW,334,8.0,-999.0,-999,-99.99,,,-99.99,,2016-02-09 12:46:00,
2016-02-09 07:53:00,27.0,16.0,-100.00,NNW,338,10.0,18.0,63,-99.99,,,-99.99,,2016-02-09 13:53:00,
2016-02-09 08:13:00,27.0,16.0,-100.00,NNW,338,10.0,18.0,63,-99.99,,,-99.99,,2016-02-09 14:13:00,
2016-02-09 08:23:00,27.0,16.0,-100.00,NNW,338,10.0,18.0,63,-99.99,,,-99.99,,2016-02-09 14:23:00,
2016-02-09 08:34:00,27.0,16.0,-100.00,NNW,338,10.0,18.0,63,-99.99,,,-99.99,,2016-02-09 14:34:00,
2016-02-09 09:13:00,29.0,15.0,-100.00,NNW,346,11.0,28.0,56,-99.99,,,-99.99,,2016-02-09 15:13:00,
2016-02-09 09:23:00,29.0,15.0,-100.00,NNW,346,11.0,28.0,56,-99.99,,,-99.99,,2016-02-09 15:23:00,
2016-02-09 09:34:00,29.0,15.0,-100.00,NNW,346,11.0,28.0,56,-99.99,,,-99.99,,2016-02-09 15:34:00,
2016-02-09 10:27:00,30.0,9.0,-100.00,North,356,13.0,29.0,40,-99.99,,,-99.99,,2016-02-09 16:27:00,
2016-02-09 10:47:00,30.0,9.0,-100.00,North,356,13.0,29.0,40,-99.99,,,-99.99,,2016-02-09 16:47:00,
2016-02-09 10:53:00,32.0,9.0,-100.00,North,9,11.0,-999.0,37,-99.99,,,-99.99,,2016-02-09 16:53:00,
2016-02-09 11:15:00,32.0,9.0,-100.00,North,9,11.0,28.0,37,-99.99,,,-99.99,,2016-02-09 17:15:00,
2016-02-09 11:25:00,32.0,9.0,-100.00,North,9,11.0,28.0,37,-99.99,,,-99.99,,2016-02-09 17:25:00,
2016-02-09 11:46:00,32.0,9.0,-100.00,North,9,11.0,28.0,37,-99.99,,,-99.99,,2016-02-09 17:46:00,
2016-02-09 12:13:00,32.0,7.0,-100.00,North,359,12.0,29.0,35,-99.99,,,-99.99,,2016-02-09 18:13:00,
2016-02-09 12:24:00,32.0,7.0,-100.00,North,359,12.0,29.0,35,-99.99,,,-99.99,,2016-02-09 18:24:00,
2016-02-09 12:34:00,32.0,7.0,-100.00,North,359,12.0,29.0,35,-99.99,,,-99.99,,2016-02-09 18:34:00,
2016-02-09 12:44:00,32.0,7.0,-100.00,North,359,12.0,29.0,35,-99.99,,,-99.99,,2016-02-09 18:44:00,
2016-02-09 12:53:00,32.0,7.0,-100.00,North,358,12.0,28.0,35,-99.99,,,-99.99,,2016-02-09 18:53:00,
2016-02-09 13:13:00,32.0,7.0,-100.00,North,358,12.0,28.0,35,-99.99,,,-99.99,,2016-02-09 19:13:00,
2016-02-09 13:23:00,32.0,7.0,-100.00,North,358,12.0,28.0,35,-99.99,,,-99.99,,2016-02-09 19:23:00,
2016-02-09 13:34:00,32.0,7.0,-100.00,North,358,12.0,28.0,35,-99.99,,,-99.99,,2016-02-09 19:34:00,
2016-02-09 13:44:00,32.0,7.0,-100.00,North,358,12.0,28.0,35,-99.99,,,-99.99,,2016-02-09 19:44:00,
2016-02-09 13:53:00,34.0,9.0,-100.00,NNW,347,10.0,29.0,34,-99.99,,,-99.99,,2016-02-09 19:53:00,
2016-02-09 14:13:00,34.0,9.0,-100.00,NNW,347,10.0,29.0,34,-99.99,,,-99.99,,2016-02-09 20:13:00,
2016-02-09 14:23:00,34.0,9.0,-100.00,NNW,347,10.0,29.0,34,-99.99,,,-99.99,,2016-02-09 20:23:00,
2016-02-09 14:34:00,34.0,9.0,-100.00,NNW,347,10.0,29.0,34,-99.99,,,-99.99,,2016-02-09 20:34:00,
2016-02-09 14:53:00,34.0,8.0,-100.00,NNW,342,12.0,25.0,33,-99.99,,,-99.99,,2016-02-09 20:53:00,
2016-02-09 15:13:00,34.0,8.0,-100.00,NNW,342,12.0,-999.0,33,-99.99,,,-99.99,,2016-02-09 21:13:00,
2016-02-09 15:23:00,34.0,8.0,-100.00,NNW,342,12.0,25.0,33,-99.99,,,-99.99,,2016-02-09 21:23:00,
2016-02-09 15:34:00,34.0,8.0,-100.00,NNW,342,12.0,25.0,33,-99.99,,,-99.99,,2016-02-09 21:34:00,
2016-02-09 15:53:00,33.0,6.0,-100.00,NNW,330,13.0,23.0,32,-99.99,,,-99.99,,2016-02-09 21:53:00,
2016-02-09 16:16:00,33.0,6.0,-100.00,NNW,330,13.0,23.0,32,-99.99,,,-99.99,,2016-02-09 22:16:00,
2016-02-09 16:27:00,33.0,6.0,-100.00,NNW,330,13.0,23.0,32,-99.99,,,-99.99,,2016-02-09 22:27:00,
2016-02-09 16:53:00,32.0,6.0,-100.00,North,351,11.0,-999.0,32,-99.99,,,-99.99,,2016-02-09 22:53:00,
2016-02-09 17:15:00,32.0,6.0,-100.00,North,351,11.0,-999.0,32,-99.99,,,-99.99,,2016-02-09 23:15:00,
2016-02-09 17:25:00,32.0,6.0,-100.00,North,351,11.0,24.0,32,-99.99,,,-99.99,,2016-02-09 23:25:00,
2016-02-09 17:34:00,32.0,6.0,-100.00,North,351,11.0,24.0,32,-99.99,,,-99.99,,2016-02-09 23:34:00,
2016-02-09 18:14:00,30.0,6.0,-100.00,NNW,339,10.0,23.0,36,-99.99,,,-99.99,,2016-02-10 00:14:00,